Main page
METAR-TAF:

METAR-TAF

Airports :

Qazvin, Iran

Qazvin Airport

latitude: 36-15N, longitude: 050-00E, elevation: 1278 m

Current weather observation

The report was made 50 minutes ago, at 09:00 UTC
Wind 6 kt from the South/Southeast
Temperature 20°C
Humidity 18%
Pressure 1016 hPa
Visibility 10 km or more
no clouds below 1500 m and no cumulonimbus

METAR: OIIK 220900Z 16006KT CAVOK 20/M05 Q1016

Time: 13:20 (09:50 UTC)


TAF: missing

Weather observations and forecasts of more than 4000 airports (METAR and TAF reports).

The available stations are represented by yellow and red dots on the map.

Hover mouse over dot to see the name of the station.

Then click to see weather observations and forecasts.

To change the map : click on the green buttons with a black cross to zoom in, on the green button with a dash to zoom out, or on the green arrows for adjacent maps.


METAR-TAF: